Tracking 19170 objects as of 22-May-2018
HD Live streaming from Space Station
objects crossing your sky now

FLOCK 3P 49

Track FLOCK 3P 49 now!
10-day predictions
FLOCK 3P 49 is classified as:


NORAD ID: 42001
Int'l Code: 2017-008BF
Perigee: 493.1 km
Apogee: 506.9 km
Inclination: 97.5 °
Period: 94.5 minutes
Semi major axis: 6870 km
RCS: Unknown
Launch date: February 15, 2017
Source: United States (US)
Launch site: SRIHARIKOTA (SRI)
aabbcc
Your satellite tracking list
Your tracking list is empty




NASA's NSSDC Master Catalog

Two Line Element Set (TLE):
1 42001U 17008BF  18141.78996594  .00001639  00000-0  69922-4 0  9996
2 42001  97.4523 206.9070 0009984 102.5058 257.7297 15.24308978 69937
Source of the keplerian elements: AFSPC